Regional Weather Roundup
Issued by NWS

Home | Current Version | Previous Version | Graphics & Text | Print | Product List | Glossary Off
Versions: 1 2 3 4 5 6 7 8 9 10 11 12 13 14 15 16 17 18 19 20 21 22 23 24 25 26 27 28 29 30 31 32 33 34 35 36 37 38 39 40 41 42 43 44 45 46 47 48 49 50

000
ASUS43 KMKX 160000
RWRWI

WISCONSIN REGIONAL WEATHER ROUNDUP
NATIONAL WEATHER SERVICE MILWAUKEE/SULLIVAN WI
700 PM CDT MON SEP 15 2014

NOTE: "FAIR" INDICATES FEW OR NO CLOUDS BELOW 12,000 FEET WITH NO
SIGNIFICANT WEATHER AND/OR OBSTRUCTIONS TO VISIBILITY.

WIZ001-002-006>008-014>016-023>028-160100-
NORTHWEST WISCONSIN

CITY           SKY/WX    TMP DP  RH WIND       PRES   REMARKS
SUPERIOR ARPT  PTCLDY    56  39  53 W5        30.16S
ASHLAND        CLEAR     48  40  73 SW3       30.16S
6HR MIN TEMP:  48; 6HR MAX TEMP:  59;

HAYWARD        CLEAR     54  36  50 CALM      30.17S
6HR MIN TEMP:  54; 6HR MAX TEMP:  59;

SIREN          CLEAR     56  36  48 N5        30.18S
RICE LAKE      CLEAR     53  37  55 NW3       30.19S
6HR MIN TEMP:  53; 6HR MAX TEMP:  61;

LADYSMITH      PTCLDY    54  38  54 NW7       30.18S
EAU CLAIRE     NOT AVBL
MENOMONIE      PTCLDY    58  37  44 NW9       30.18S
NEW RICHMOND   CLEAR     56  37  49 NW3       30.19S
OSCEOLA        PTCLDY    57  39  50 N3        30.21S
$$

WIZ003>005-009-010-017-018-160100-
NORTH CENTRAL WISCONSIN

CITY           SKY/WX    TMP DP  RH WIND       PRES   REMARKS
WOODRUFF       CLEAR     52  38  59 NW5       30.15S
6HR MIN TEMP:  52; 6HR MAX TEMP:  59;

RHINELANDER    CLEAR     51  36  56 NW6       30.15R
6HR MIN TEMP:  51; 6HR MAX TEMP:  59;

EAGLE RIVER    CLEAR     50  34  54 NW8       30.14R
LAND O LAKES   CLEAR     50  35  56 NW6       30.15R
PHILLIPS       CLEAR     49  36  60 NW3       30.16S
6HR MIN TEMP:  49; 6HR MAX TEMP:  58;

TOMAHAWK       CLEAR     52  38  57 CALM      30.15R
MEDFORD        CLEAR     53  38  56 NW6       30.15R
MERRILL        CLOUDY    55  38  52 NW7       30.13S
$$

WIZ029-030-035-036-043>047-160100-
CENTRAL WISCONSIN

CITY           SKY/WX    TMP DP  RH WIND       PRES   REMARKS
WAUSAU         CLEAR     56  37  49 NW7       30.12R
6HR MIN TEMP:  56; 6HR MAX TEMP:  62;

MOSINEE        CLEAR     54  39  58 NW8       30.14S
MARSHFIELD     CLEAR     52  42  69 NW7       30.15R
6HR MIN TEMP:  52; 6HR MAX TEMP:  62;

STEVENS POINT  CLEAR     56  42  58 NW5       30.14R
WAUPACA        PTCLDY    60  49  66 W3        30.13R
WAUTOMA        NOT AVBL
WISC RAPIDS    LGT RAIN  53  44  71 NW6       30.15R
6HR MIN TEMP:  53; 6HR MAX TEMP:  60; 6HR PCP: TRACE;

CAMP DOUGLAS   NOT AVBL
$$

WIZ011>013-019>022-031-037>040-048>050-160100-
NORTHEAST WISCONSIN

CITY           SKY/WX    TMP DP  RH WIND       PRES   REMARKS
ANTIGO         CLEAR     53  40  59 NW7       30.13R
STURGEON BAY   PTCLDY    55  46  71 SW5       30.11R
6HR MIN TEMP:  55; 6HR MAX TEMP:  61;

GREEN BAY      CLEAR     55  49  80 SW5       30.11S
6HR MIN TEMP:  55; 6HR MAX TEMP:  61;

MANITOWOC      NOT AVBL
APPLETON       PTCLDY    55  46  71 SW7       30.13R
CLINTONVILLE   MOCLDY    57  45  62 CALM      30.11S
OSHKOSH        CLEAR     55  47  74 W5        30.13R
6HR MIN TEMP:  54; 6HR MAX TEMP:  59; 6HR PCP:  0.03;

$$

WIZ032>034-041-042-053>061-160100-
SOUTHWEST WISCONSIN

CITY           SKY/WX    TMP DP  RH WIND       PRES   REMARKS
LA CROSSE      CLEAR     57  43  59 NW7       30.17R
6HR MIN TEMP:  55; 6HR MAX TEMP:  64;

SPARTA         PTCLDY    58  43  57 NW5       30.17R
VIROQUA        FAIR      55  46  74 NW5       30.17R
BOSCOBEL       CLEAR     56  48  74 W3        30.17R
6HR MIN TEMP:  53; 6HR MAX TEMP:  62; 6HR PCP:  0.01;

PRAIRIE DU CHI CLEAR     56  45  66 CALM      30.17S
PLATTEVILLE    FAIR      55  47  75 CALM      30.17S
$$

WIZ056-057-062-063-064-067-068-160100-
SOUTH CENTRAL WISCONSIN

CITY           SKY/WX    TMP DP  RH WIND       PRES   REMARKS
BARABOO/DELLS  CLEAR     55  45  67 CALM      30.15S
LONE ROCK      NOT AVBL
WATERTOWN      PTCLDY    54  49  83 NW3       30.14S
MADISON        PTCLDY    52  46  80 NW3       30.15S
6HR MIN TEMP:  52; 6HR MAX TEMP:  58; 6HR PCP:  0.07;

MIDDLETON      FAIR      56  45  67 CALM      30.16S
MONROE         CLOUDY    54  50  87 CALM      30.15S
JANESVILLE     MOCLDY    55  46  71 N6        30.15R
$$

WIZ051-052-058>065-066-070>072-160100-
SOUTHEAST WISCONSIN

CITY           SKY/WX    TMP DP  RH WIND       PRES   REMARKS
MILWAUKEE      MOCLDY    53  49  86 N3        30.14R
6HR MIN TEMP:  53; 6HR MAX TEMP:  57; 6HR PCP:  0.04;

WAUKESHA       PTCLDY    52  46  82 NW5       30.15R
MILWAUKEE/TIMM MOCLDY    54  46  76 N6        30.15R
RACINE         PTCLDY    53  49  86 NW6       30.15S
6HR MIN TEMP:  53; 6HR MAX TEMP:  60; 6HR PCP:  0.06;

BURLINGTON     PTCLDY    52  46  81 N7        30.14R
KENOSHA        MOCLDY    53  50  89 N5        30.14S
6HR MIN TEMP:  53; 6HR MAX TEMP:  61; 6HR PCP:  0.07;

FOND DU LAC    CLEAR     54  47  77 W3        30.13S
6HR MIN TEMP:  53; 6HR MAX TEMP:  57; 6HR PCP:  0.09;

SHEBOYGAN      PTCLDY    52  49  89 W5        30.12S
6HR MIN TEMP:  52; 6HR MAX TEMP:  56; 6HR PCP:  0.10;

WEST BEND      CLEAR     52  46  82 CALM      30.14S
JUNEAU         CLEAR     54  47  80 CALM      30.15S
$$

LSZ147-162-160100-
LAKE SUPERIOR

STATION/POSITION TIME  TEMP    WIND        PRES    WAVE
                       AIR SEA DIR/SP/G            HT/PER
                 (UTC) (F)     (DEG/KT/KT) (MB)    (FT/S)
W MID LAKE BUOY  2250   51 48  230/ 10/ 12 1019.8R   1/ 4
DEVILS ISLAND    2300   54     230/ 11/ 14 1020.7R
PORT WING        2300   58     220/  5/ 10 1021.0S
SAXON HARBOR     2300   57     260/  3/  6 1021.0S
$$

LMZ867-665-643>646-160100-
LAKE MICHIGAN

STATION/POSITION TIME  TEMP    WIND        PRES    WAVE
                       AIR SEA DIR/SP/G            HT/PER
                 (UTC) (F)     (DEG/KT/KT) (MB)    (FT/S)
N MID LAKE BUOY  2250   56 60  230/  8/ 10 1019.0R   1/ 5
NORTHPORT PIER   2300   61     200/  1/  4 1018.6S
KEWAUNEE LAKESHO 2300   59     260/  5/  7 1018.4R
SHEBOYGAN LAKESH 2300   55 49  300/  4/  5 1020.5R
PORT WASHINGTON  2340   55     300/  3/  6 1021.0R
ATWATER BUOY     2300   55     340/  6/  6 1021.0R
MILWAUKEE LAKESH 2300   55      20/  2/  4   N/A
S MID LAKE BUOY  2250   56 64  360/ 16/ 17 1019.3R   3/ 4
KENOSHA   LAKESH 2300   54     360/ 13/ 15 1020.0R
$$

TC  - TEMPERATURE IN CELSIUS
VSB - VISIBILITY IN STATUTE MILES
WCI - WIND CHILL INDEX
HX  - HEAT INDEX



USA.gov is the U.S. government's official web portal to all federal, state and local government web resources and services.